Weather History for KOEB - February, 2013

Change the Weather History Date:

Wednesday, February 20, 2013

  Actual Average (KJYM) Record (KJYM)
Temperature  
Mean Temperature 19 °F -  
Max Temperature 22 °F 35 °F 56 °F (1954)
Min Temperature 16 °F 18 °F -17 °F (2015)
Degree Days  
Heating Degree Days 46    
Moisture  
Dew Point 14 °F    
Average Humidity 79    
Maximum Humidity 86    
Minimum Humidity 71    
Precipitation  
Precipitation 0.00 in - - ()
Sea Level Pressure  
Sea Level Pressure 30.14 in    
Wind  
Wind Speed 14 mph (WNW)    
Max Wind Speed 18 mph    
Max Gust Speed 24 mph    
Visibility 6 miles    
Events Snow    
Averages and records for this station are not official NWS values.
T = Trace of Precipitation, MM = Missing Value Source: NWS Daily Summary

Daily Weather History Graph

Daily Weather History Graph

Search for Another Location

Airport or City:

Trip Planner

Search our weather history database for the weather conditions in past years. The results will help you decide how hot, cold, wet, or windy it might be!

Date:

Astronomy

Feb. 20, 2013 Rise Set
Actual Time 7:28 AM EST 6:19 PM EST
Civil Twilight 7:00 AM EST 6:48 PM EST
Nautical Twilight 6:27 AM EST 7:20 PM EST
Astronomical Twilight 5:55 AM EST 7:52 PM EST
Moon 1:37 PM EST (2/20) 3:51 AM EST (2/20)
Length of Visible Light 11h 47m
Length of Day
10h 51m
Waxing Gibbous, 76% of the Moon is Illuminated
Feb 20
Waxing Gibbous
Feb 25
Full
Mar 4
Last Quarter
Mar 11
New
Mar 19
First Quarter

Hourly Weather History & Observations

Time (EST) Temp. Windchill Dew Point Humidity Pressure Visibility Wind Dir Wind Speed Gust Speed Precip Events Conditions
12:14 AM 17.1 °F 1.0 °F 12.4 °F 82% 29.98 in 10.0 mi West 18.4 mph 24.2 mph N/A   Overcast
12:35 AM 17.2 °F 2.2 °F 12.0 °F 80% 29.99 in 10.0 mi West 16.1 mph 21.9 mph N/A   Overcast
12:54 AM 17.2 °F 1.7 °F 12.0 °F 80% 29.99 in 7.0 mi West 17.3 mph 23.0 mph N/A Snow Light Snow
1:14 AM 17.2 °F 2.2 °F 12.2 °F 81% 29.99 in 7.0 mi West 16.1 mph 20.7 mph N/A Snow Light Snow
1:35 AM 17.1 °F 2.5 °F 12.2 °F 81% 30.00 in 4.0 mi West 15.0 mph - N/A Snow Light Snow
1:54 AM 17.1 °F 1.5 °F 12.6 °F 82% 30.01 in 4.0 mi West 17.3 mph - N/A Snow Light Snow
2:14 AM 17.1 °F 3.0 °F 12.7 °F 83% 30.01 in 4.0 mi West 13.8 mph 17.3 mph N/A Snow Light Snow
2:35 AM 17.1 °F 2.0 °F 12.7 °F 83% 30.02 in 5.0 mi West 16.1 mph - N/A Snow Light Snow
2:54 AM 16.7 °F 1.5 °F 12.2 °F 82% 30.02 in 5.0 mi West 16.1 mph 23.0 mph N/A Snow Light Snow
3:14 AM 16.7 °F 1.5 °F 12.4 °F 83% 30.02 in 4.0 mi West 16.1 mph 20.7 mph N/A Snow Light Snow
3:34 AM 16.7 °F 1.5 °F 12.2 °F 82% 30.02 in 5.0 mi West 16.1 mph 23.0 mph N/A Snow Light Snow
4:15 AM 16.7 °F 2.6 °F 12.7 °F 84% 30.04 in 5.0 mi West 13.8 mph 20.7 mph N/A Snow Light Snow
4:34 AM 16.7 °F 1.5 °F 12.7 °F 84% 30.04 in 4.0 mi West 16.1 mph 19.6 mph N/A Snow Light Snow
4:54 AM 16.7 °F 2.6 °F 12.7 °F 84% 30.05 in 3.0 mi West 13.8 mph 21.9 mph N/A Snow Light Snow
5:14 AM 16.7 °F 2.6 °F 13.1 °F 86% 30.06 in 3.0 mi West 13.8 mph 18.4 mph N/A Snow Light Snow
5:34 AM 16.5 °F 1.3 °F 12.6 °F 84% 30.06 in 4.0 mi West 16.1 mph 21.9 mph N/A Snow Light Snow
5:54 AM 16.7 °F 3.8 °F 12.7 °F 84% 30.07 in 4.0 mi West 11.5 mph 18.4 mph N/A Snow Light Snow
6:14 AM 16.7 °F 2.6 °F 12.2 °F 82% 30.08 in 5.0 mi West 13.8 mph - N/A Snow Light Snow
6:34 AM 16.7 °F 4.5 °F 12.6 °F 84% 30.08 in 5.0 mi West 10.4 mph - N/A Snow Light Snow
6:55 AM 16.7 °F 2.0 °F 12.6 °F 84% 30.09 in 4.0 mi West 15.0 mph 20.7 mph N/A Snow Light Snow
7:14 AM 16.7 °F 2.0 °F 12.7 °F 84% 30.09 in 5.0 mi West 15.0 mph - N/A Snow Light Snow
7:34 AM 16.9 °F 2.8 °F 12.9 °F 84% 30.09 in 2.5 mi West 13.8 mph 20.7 mph N/A Snow Light Snow
7:55 AM 17.1 °F 4.3 °F 12.7 °F 83% 30.10 in 4.0 mi West 11.5 mph - N/A Snow Light Snow
8:14 AM 17.2 °F 3.3 °F 13.1 °F 84% 30.11 in 3.0 mi WNW 13.8 mph 18.4 mph N/A Snow Light Snow
8:34 AM 17.6 °F 3.7 °F 13.3 °F 83% 30.11 in 3.0 mi West 13.8 mph 17.3 mph N/A Snow Light Snow
8:55 AM 17.8 °F 4.0 °F 13.8 °F 84% 30.11 in 3.0 mi West 13.8 mph 17.3 mph N/A Snow Light Snow
9:14 AM 18.3 °F 6.6 °F 14.0 °F 83% 30.11 in 2.0 mi West 10.4 mph 19.6 mph N/A Snow Light Snow
9:34 AM 18.5 °F 6.1 °F 14.4 °F 84% 30.12 in 2.0 mi WNW 11.5 mph - N/A Snow Light Snow
9:55 AM 18.5 °F 7.5 °F 14.7 °F 85% 30.13 in 0.5 mi North 9.2 mph - N/A Snow Snow
10:14 AM 17.4 °F 7.1 °F 13.1 °F 83% 30.14 in 1.0 mi NNW 8.1 mph - N/A Snow Light Snow
10:34 AM 17.8 °F 5.2 °F 13.1 °F 82% 30.14 in 1.8 mi NNW 11.5 mph - N/A Snow Light Snow
10:55 AM 18.5 °F 7.5 °F 13.8 °F 82% 30.15 in 1.5 mi NW 9.2 mph - N/A Snow Light Snow
11:14 AM 18.7 °F 8.6 °F 13.5 °F 80% 30.16 in 1.8 mi NW 8.1 mph 17.3 mph N/A Snow Light Snow
11:34 AM 19.2 °F 6.4 °F 12.9 °F 76% 30.16 in 4.0 mi NW 12.7 mph 17.3 mph N/A Snow Light Snow
11:55 AM 19.4 °F 9.5 °F 12.9 °F 76% 30.16 in 5.0 mi NW 8.1 mph - N/A Snow Light Snow
12:14 PM 20.1 °F 8.8 °F 13.1 °F 74% 30.16 in 4.0 mi WNW 10.4 mph - N/A Snow Light Snow
12:34 PM 20.1 °F 9.5 °F 14.4 °F 78% 30.17 in 2.0 mi WNW 9.2 mph - N/A Snow Light Snow
12:54 PM 20.3 °F 10.6 °F 13.5 °F 75% 30.17 in 4.0 mi NW 8.1 mph - N/A Snow Light Snow
1:14 PM 20.8 °F 9.7 °F 14.0 °F 75% 30.16 in 4.0 mi WNW 10.4 mph - N/A Snow Light Snow
1:35 PM 20.8 °F 12.1 °F 14.5 °F 77% 30.17 in 3.0 mi WNW 6.9 mph - N/A Snow Light Snow
1:54 PM 21.0 °F 12.4 °F 15.1 °F 78% 30.16 in 3.0 mi WNW 6.9 mph - N/A Snow Light Snow
2:14 PM 21.2 °F 11.7 °F 14.9 °F 77% 30.16 in 4.0 mi WNW 8.1 mph - N/A Snow Light Snow
2:35 PM 21.2 °F 9.5 °F 15.3 °F 78% 30.16 in 4.0 mi West 11.5 mph - N/A Snow Light Snow
2:54 PM 21.2 °F 11.7 °F 16.0 °F 80% 30.17 in 2.5 mi WNW 8.1 mph - N/A Snow Light Snow
3:14 PM 21.9 °F 11.0 °F 15.6 °F 77% 30.19 in 7.0 mi West 10.4 mph 17.3 mph N/A Snow Light Snow
3:54 PM 21.6 °F 8.8 °F 15.3 °F 77% 30.21 in 7.0 mi WNW 13.8 mph 17.3 mph N/A Snow Light Snow
4:14 PM 22.1 °F 10.6 °F 15.6 °F 76% 30.21 in 10.0 mi WNW 11.5 mph - N/A Snow Light Snow
4:35 PM 22.1 °F 12.0 °F 16.0 °F 77% 30.21 in 5.0 mi WNW 9.2 mph - N/A Snow Light Snow
4:54 PM 21.7 °F 11.5 °F 16.2 °F 79% 30.21 in 4.0 mi NW 9.2 mph - N/A Snow Light Snow
5:14 PM 21.9 °F 11.7 °F 15.4 °F 76% 30.21 in 7.0 mi NW 9.2 mph 12.7 mph N/A Snow Light Snow
5:35 PM 21.7 °F 10.2 °F 14.9 °F 75% 30.21 in 10.0 mi NNW 11.5 mph - N/A Snow Light Snow
5:54 PM 21.6 °F 9.3 °F 14.5 °F 74% 30.21 in 10.0 mi NW 12.7 mph 17.3 mph N/A Snow Light Snow
6:14 PM 21.6 °F 9.9 °F 14.5 °F 74% 30.22 in 7.0 mi NW 11.5 mph 21.9 mph N/A Snow Light Snow
6:34 PM 21.6 °F 9.3 °F 14.4 °F 74% 30.22 in 10.0 mi NW 12.7 mph 16.1 mph N/A Snow Light Snow
6:54 PM 21.2 °F 8.9 °F 14.7 °F 76% 30.23 in 10.0 mi NNW 12.7 mph 23.0 mph N/A Snow Light Snow
7:15 PM 21.0 °F 8.1 °F 14.2 °F 75% 30.23 in 10.0 mi NW 13.8 mph 20.7 mph N/A Snow Light Snow
7:34 PM 21.0 °F 9.3 °F 14.4 °F 75% 30.24 in 10.0 mi NW 11.5 mph 17.3 mph N/A Snow Light Snow
7:54 PM 20.8 °F 9.0 °F 14.2 °F 75% 30.24 in 10.0 mi NNW 11.5 mph 19.6 mph N/A Snow Light Snow
8:15 PM 21.0 °F 8.6 °F 13.6 °F 73% 30.24 in 10.0 mi NW 12.7 mph - N/A Snow Light Snow
8:34 PM 21.0 °F 9.9 °F 13.6 °F 73% 30.25 in 10.0 mi NW 10.4 mph - N/A Snow Light Snow
8:54 PM 21.0 °F 9.9 °F 13.6 °F 73% 30.25 in 10.0 mi NW 10.4 mph 16.1 mph N/A Snow Light Snow
9:15 PM 21.2 °F 8.9 °F 13.3 °F 72% 30.25 in 10.0 mi NW 12.7 mph 19.6 mph N/A Snow Light Snow
9:34 PM 21.2 °F 8.9 °F 13.1 °F 71% 30.25 in 10.0 mi NW 12.7 mph 17.3 mph N/A   Overcast
9:54 PM 21.2 °F 10.1 °F 13.1 °F 71% 30.25 in 10.0 mi NW 10.4 mph 16.1 mph N/A   Overcast
10:15 PM 21.0 °F 8.6 °F 13.6 °F 73% 30.25 in 10.0 mi NW 12.7 mph 16.1 mph N/A Snow Light Snow
10:34 PM 21.0 °F 10.6 °F 13.8 °F 74% 30.25 in 10.0 mi NW 9.2 mph - N/A Snow Light Snow
10:54 PM 21.0 °F 8.6 °F 14.0 °F 74% 30.25 in 10.0 mi NNW 12.7 mph 19.6 mph N/A Snow Light Snow
11:14 PM 21.0 °F 9.3 °F 14.0 °F 74% 30.25 in 10.0 mi NW 11.5 mph 16.1 mph N/A Snow Light Snow
11:34 PM 20.8 °F 10.4 °F 14.0 °F 75% 30.25 in 10.0 mi NW 9.2 mph - N/A Snow Light Snow
11:55 PM 20.8 °F 10.4 °F 14.4 °F 76% 30.25 in 10.0 mi NW 9.2 mph - N/A Snow Light Snow